User: anonymous
Location: Cow Canyon Saddle
(34.2291°N, 117.6698°W)
Time: 23:25:19
(UTC-07:00)
Language:

Lacrosse 5 - Orbit

View from above orbital plane
View from above orbital plane
View from above satellite
View from above satellite

Ground track
Ground track

The orbit data is extracted from the following two-line orbital elements,

1 28646U 05016A   14198.95043367 0.00000000  00000-0  00000-0 0    01
2 28646  57.0060 143.1753 0005602  12.5073 347.4927 14.53498671    05
Epoch (UTC): 17 July 2014 22:48:37
Eccentricity: 0.0005602
inclination: 57.0060°
perigee height: 710 km
apogee height: 718 km
right ascension of ascending node: 143.1753°
argument of perigee: 12.5073°
revolutions per day: 14.53498671
mean anomaly at epoch: 347.4927°
orbit number at epoch: 0

The dashed part of the orbit path shows where the satellite is in the earth's shadow,  

DLR